User: anonymous   Login
Location: Caltech
(34.1382°N, 118.1253°W)
Time: 05:34:43
(UTC-07:00)
Language:

Cosmos 1939 Rocket - Orbit

View from above orbital plane
View from above orbital plane
View from above satellite
View from above satellite

Ground track
Ground track

The orbit data is extracted from the following two-line orbital elements,

1 19046U 88032B   17200.56937463 -.00000569 +00000-0 -38051-4 0  9997
2 19046 097.5248 246.5560 0034968 219.9800 139.8850 15.02231195577219
Epoch (UTC): 19 July 2017 13:39:53
Eccentricity: 0.0034968
inclination: 97.5248°
perigee height: 536 km
apogee height: 584 km
right ascension of ascending node: 246.5560°
argument of perigee: 219.9800°
revolutions per day: 15.02231195
mean anomaly at epoch: 139.8850°
orbit number at epoch: 57721

The dashed part of the orbit path shows where the satellite is in the earth's shadow,  

DLR